Regional Weather Roundup
Issued by NWS

Home | Current Version | Previous Version | Text Only | Print | Product List | Glossary On
Versions: 1 2 3 4 5 6 7 8 9 10 11 12 13 14 15 16 17 18 19 20 21 22 23 24 25 26 27 28 29 30 31 32 33 34 35 36 37 38 39 40 41 42 43 44 45 46 47 48 49 50
000
ASCA44 KEWX 180320
RWRMX

LATIN AMERICA AND CARIBBEAN REGIONAL WEATHER ROUNDUP
NATIONAL WEATHER SERVICE AUSTIN/SAN ANTONIO TX
1000 PM CDT WED SEP 17 2014

NOTE: "FAIR" INDICATED FEW OR NO CLOUDS BELOW 12,000 FEET WITH NO
SIGNIFICANT WEATHER AND/OR OBSTRUCTIONS TO VISIBILITY.

BAJA CALIFORNIA

CITY           SKY/WX    TMP DP  RH WIND       PRES   REMARKS
LORETO           N/A    N/A N/A N/A MISG        N/A
LA PAZ         PTCLDY    79  70  73 S7        29.86
MEXICALI         N/A    N/A N/A N/A MISG        N/A
S.J. DEL CABO    N/A    N/A N/A N/A MISG        N/A
TIJUANA        PTCLDY    73  66  78 NW7       29.80R

NORTHWESTERN MEXICO

CITY           SKY/WX    TMP DP  RH WIND       PRES   REMARKS
CULIACAN       CLOUDY    86  79  79 NW6       29.82  HX  99
DURANGO        PTCLDY    68  57  68 S6        30.14R
GUAYMAS          N/A    N/A N/A N/A MISG        N/A
HERMOSILLO     CLOUDY    81  73  78 NW7       29.81
LOS MOCHIS     PTCLDY    81  73  78 CALM      29.82R
OBREGON        MOCLDY    79  73  83 S2        29.79

NORTHEASTERN MEXICO

CITY           SKY/WX    TMP DP  RH WIND       PRES   REMARKS
SALTILLO       PTCLDY    70  64  83 N12       30.07S

WESTERN MEXICO

CITY           SKY/WX    TMP DP  RH WIND       PRES   REMARKS
AGUASCALIENTES MOCLDY    63  57  82 CALM      30.20
DEL BAJIO      MOCLDY    68  55  64 CALM      30.22R
GUADALAJARA    PTCLDY    66  63  88 CALM      30.12
MAZATLAN       CLOUDY    79  75  89 CALM      29.80R
P. VALLARTA    MOCLDY    77  73  88 CALM      29.83R
ZACATECAS      PTCLDY    63  48  59 SW6       30.23R

CENTRAL MEXICO

CITY           SKY/WX    TMP DP  RH WIND       PRES   REMARKS
CUERNAVACA     CLEAR     68  63  83 CALM      30.11R
MEXICO CITY    PTCLDY    64  48  55 SE7       30.31R
MORELIA        CLEAR     64  59  82 CALM      30.20
PUEBLA         PTCLDY    64  61  88 S3        30.35R
QUERETARO      MOCLDY    68  61  77 E10       30.26R
S. LUIS POTOSI PTCLDY    64  59  82 SE5       30.19R
TAMPICO        CLEAR     81  73  78 SE3       29.89R
TOLUCA         PTCLDY    54  48  82 E8        30.38R

SOUTHERN MEXICO

CITY           SKY/WX    TMP DP  RH WIND       PRES   REMARKS
ACAPULCO       MOCLDY    81  77  89 NE6       29.90R
OAXACA         PTCLDY    68  59  73 CALM      30.20R
VERACRUZ       PTCLDY    81  75  83 NE5       29.90R

YUCATAN PENINSULA

CITY           SKY/WX    TMP DP  RH WIND       PRES   REMARKS
CAMPECHE       PTCLDY    82  79  89 N12       29.90R HX  93
CANCUN         PTCLDY    79  75  89 CALM      29.98R
CHETUMAL       MOCLDY    82  75  78 SE12      29.94R
CD. DEL CARMEN PTCLDY    84  75  74 NE9       29.91  HX  92
COZUMEL        PTCLDY    73  73 100 CALM      29.99R
MERIDA         CLEAR     79  72  78 NE5       29.95R
TAPACHULA      PTCLDY    81  75  83 CALM      29.93R
TUX. GUTIERREZ CLEAR     75  72  88 CALM      29.94R
VILLAHERMOSA   MOCLDY    79  75  89 CALM      29.91R

CENTRAL AMERICA

CITY           SKY/WX    TMP DP  RH WIND       PRES   REMARKS
MANAGUA        PTCLDY    79  73  83 SE9       29.89R

CARIBBEAN

CITY           SKY/WX    TMP DP  RH WIND       PRES   REMARKS
ARUBA          PTCLDY    82  75  78 E12       29.92R
KINGSTON       MOCLDY    81  73  78 NW8       29.94S
NASSAU         PTCLDY    77  72  83 S7        29.98R
SAN JUAN       PTCLDY    82  77  83 E3        29.99S HX  91
SANTO DOMINGO  PTCLDY    75  72  88 CALM      29.97R
ST. CROIX      CLEAR     79  73  83 NE5       29.98S
ST. THOMAS     CLEAR     81  73  78 E7        29.97S

$$




USA.gov is the U.S. government's official web portal to all federal, state and local government web resources and services.